[[{"header":{"parameterUnit":"m.s-1","parameterCategory":1,"la1":30.2991,"la2":30.254,"lo1":-89.0895,"lo2":-89.0444,"dy":0.0017,"dx":0.0017,"nx":28,"ny":28,"refTime":"2024-02-04T03:00:00:Z","depth":0,"parameterNumber":2,"parameterNumberName":"U-component_of_WINDS"},"data":[0,0,0,0,0,0,0,0,0,0,0,0,0,0,0,0,0,0,0,0,0,0,0,0,0,0,0,0,0,0,0,0,0,0,0,0,0,0,0,0,0,0,0,0,0,0,0,0,0,0,0,0,0,0,0,0,0,0,4.129,4.129,0,4.1301,4.1301,4.1301,4.1195,4.1192,4.119,4.1187,4.1202,4.1205,4.1208,0,0,0,0,0,0,0,0,0,0,0,0,0,4.118,4.1183,4.129,4.129,4.129,4.1301,4.1301,4.1301,4.1196,4.1192,4.1189,4.1185,4.1201,4.1205,4.1208,0,0,0,0,0,0,0,0,0,0,0,0,0,4.1214,4.1184,4.129,4.1238,4.1234,4.1301,4.1301,4.1301,4.1197,4.1192,4.1188,4.1184,4.12,4.1204,4.1209,4.1327,0,0,4.1223,4.1225,0,0,0,0,0,0,0,0,4.1212,4.1218,4.1246,4.1242,4.1237,4.1242,4.1268,4.131,4.1198,4.1211,4.1187,4.1182,4.1219,4.1222,4.1234,4.1327,4.1328,4.1224,4.1227,4.1229,4.123,0,0,0,0,0,0,0,4.121,4.1217,4.1294,4.1246,4.1241,4.1216,4.1216,4.1276,4.124,4.1209,4.1202,4.1204,4.1216,4.123,4.1234,4.1328,4.1224,4.1228,4.1231,4.1233,4.1521,4.1526,0,0,0,0,0,0,4.1214,4.1215,4.1294,4.1294,4.1213,4.1222,4.1222,4.1245,4.1239,4.1234,4.1208,4.1199,4.1224,4.1228,4.1234,4.1373,4.1229,4.1233,4.1236,4.1516,4.1522,4.1527,0,0,0,0,0,0,4.1212,4.1222,4.1293,4.1253,4.126,4.1228,4.1256,4.1248,4.1261,4.1238,4.1231,4.1229,4.122,4.1227,4.1305,4.1372,4.1235,4.1239,4.1511,4.1518,4.1525,4.1651,0,0,0,0,0,0,4.1209,4.1222,4.1265,4.1255,4.1263,4.1363,4.126,4.1251,4.1269,4.1258,4.1255,4.1251,4.1217,4.1298,4.1309,4.1376,4.1243,4.1504,4.1514,4.1522,4.1641,4.1662,4.168,0,0,0,0,0,4.1206,4.13,4.1268,4.1278,4.1316,4.1367,4.1372,4.1331,4.1275,4.1319,4.1305,4.1251,4.1362,4.1307,4.1319,4.1388,4.15,4.1511,4.1522,4.1632,4.1658,4.1679,0,0,0,0,0,0,4.132,4.1298,4.1261,4.1355,4.1364,4.1349,4.1403,4.1359,4.1384,4.1373,4.1322,4.1322,4.1409,4.1406,4.1344,4.1502,4.1422,4.1435,4.1502,4.1526,4.1545,4.1545,4.1247,0,0,0,0,0,4.1356,4.1398,4.1377,4.1462,4.1468,4.1436,4.1456,4.1424,4.1431,4.1435,4.1425,4.1436,4.1473,4.1499,4.1532,4.164,4.1639,4.1693,4.1712,4.1728,4.1742,4.1801,4.1825,4.1563,4.1563,4.1563,0,0,4.1431,4.1424,4.1454,4.1485,4.1488,4.1534,4.1439,4.1492,4.1527,4.1443,4.1516,4.151,4.1518,4.1612,4.1653,4.1612,4.1814,4.1742,4.1755,4.176,4.1814,4.1839,4.1861,4.157,4.1569,4.1568,0,0,4.1592,4.159,4.1662,4.1667,4.1672,4.165,4.1668,4.166,4.1653,4.1725,4.1664,4.1705,4.177,4.1779,4.1792,4.1958,4.1911,4.197,4.2073,4.2131,4.2152,4.217,4.2231,4.2254,4.1983,4.1983,4.1984,0,4.1685,4.1751,4.1704,4.1762,4.1779,4.1704,4.1778,4.1785,4.1802,4.1816,4.1769,4.185,4.185,4.1947,4.1987,4.2,4.202,4.1971,4.2152,4.217,4.2186,4.2244,4.2268,4.1991,4.199,4.1989,4.1989,0,4.1867,4.1914,4.1972,4.1989,4.2012,4.2077,4.2042,4.2071,4.2037,4.2021,4.2097,4.2094,4.2127,4.2146,4.2114,4.2239,4.2214,4.2161,4.2079,4.2219,4.2273,4.2295,4.2001,4.1999,4.1997,4.1995,0,0,4.21,4.2092,4.2114,4.2122,4.2123,4.216,4.2223,4.2254,4.2281,4.2295,4.2348,4.2405,4.2357,4.2372,4.234,4.2391,4.2526,4.2331,4.2331,4.2369,4.2666,4.2708,4.2734,4.2493,4.2497,4.2501,4.2666,0,4.2259,4.2365,4.2325,4.2435,4.248,4.241,4.2465,4.2473,4.246,4.2497,4.2482,4.2525,4.2456,4.2465,4.2512,4.2499,4.2585,4.2487,4.2544,4.2547,4.2546,4.2762,4.2805,4.2961,4.2687,4.269,4.2693,0,4.2458,4.2481,4.2595,4.259,4.2607,4.2658,4.2684,4.2719,4.2728,4.2715,4.2732,4.269,4.2753,4.267,4.2758,4.2692,4.2713,4.2711,4.2716,4.2721,4.263,4.2775,4.301,4.3035,4.2725,4.2722,4.272,0,4.262,4.2679,4.2755,4.2764,4.276,4.2797,4.2797,4.2801,4.2823,4.2846,4.286,4.2891,4.2908,4.2934,4.2902,4.2844,4.2995,4.2909,4.2988,4.2989,4.3024,4.3023,4.3268,4.3035,4.3034,4.3034,4.3033,0,4.2803,4.2876,4.2828,4.2875,4.2956,4.291,4.2992,4.2985,4.2989,4.3035,4.2976,4.3021,4.2975,4.3016,4.2991,4.3069,4.3076,4.3069,4.3062,4.3075,4.3077,4.309,4.3079,4.304,4.3039,4.3038,4.3037,0,4.2998,4.2968,4.3047,4.3037,4.3036,4.3097,4.3089,4.3133,4.3115,4.3175,4.3186,4.3159,4.3205,4.3174,4.322,4.3203,4.3306,4.3282,4.3303,4.3298,4.3379,4.3373,4.3643,4.3677,4.342,4.3423,4.3425,0,4.3117,4.3172,4.3168,4.3194,4.3198,4.3241,4.3263,4.3221,4.3247,4.3261,4.3305,4.3344,4.3374,4.345,4.3436,4.3471,4.3449,4.3542,4.3454,4.3467,4.3454,4.3452,4.3458,4.356,4.3563,4.3566,4.3568,0,4.3333,4.3316,4.3349,4.3379,4.3407,4.3429,4.3445,4.347,4.3428,4.346,4.3505,4.3529,4.3575,4.3617,4.3646,4.3648,4.3602,4.3595,4.3615,4.3631,4.3642,4.3639,4.3354,4.3589,4.3587,4.3586,4.3584,4.3584,4.3495,4.3541,4.3547,4.3587,4.3595,4.3612,4.3654,4.3642,4.3679,4.3713,4.3686,4.3741,4.3749,4.3784,4.3792,4.3835,4.3797,4.3827,4.3834,4.3843,4.3855,4.3633,4.384,4.3839,4.3838,4.3838,4.3837,0,4.371,4.371,4.3747,4.3773,4.3805,4.3757,4.3774,4.3805,4.3853,4.3865,4.3895,4.3949,4.3989,4.3978,4.4015,4.4052,4.4032,4.4063,4.4061,4.4062,4.3885,4.3865,4.4079,4.4078,4.4078,4.4078,4.4078,4.4078,4.3826,4.3903,4.3887,4.3968,4.3967,4.402,4.4034,4.405,4.4059,4.4121,4.4154,4.4147,4.415,4.4186,4.4222,4.4217,4.4235,4.4274,4.4263,4.4098,4.4074,4.4052,4.4033,4.4278,4.4278,4.4436,4.4438,4.4439]},{"header":{"parameterUnit":"m.s-1","parameterCategory":1,"la1":30.2991,"la2":30.254,"lo1":-89.0895,"lo2":-89.0444,"dy":0.0017,"dx":0.0017,"nx":28,"ny":28,"refTime":"2024-02-04T03:00:00:Z","depth":0,"parameterNumber":3,"parameterNumberName":"V-component_of_WINDS"},"data":[0,0,0,0,0,0,0,0,0,0,0,0,0,0,0,0,0,0,0,0,0,0,0,0,0,0,0,0,0,0,0,0,0,0,0,0,0,0,0,0,0,0,0,0,0,0,0,0,0,0,0,0,0,0,0,0,0,0,-2.2172,-2.2172,0,-2.2176,-2.2176,-2.2176,-2.2172,-2.2172,-2.2172,-2.2172,-2.2175,-2.2176,-2.2176,0,0,0,0,0,0,0,0,0,0,0,0,0,-2.2161,-2.2161,-2.2172,-2.2172,-2.2172,-2.2176,-2.2176,-2.2176,-2.2172,-2.2172,-2.2172,-2.2172,-2.2175,-2.2176,-2.2176,0,0,0,0,0,0,0,0,0,0,0,0,0,-2.2166,-2.2162,-2.2172,-2.2171,-2.2171,-2.2176,-2.2176,-2.2176,-2.2172,-2.2172,-2.2172,-2.2172,-2.2175,-2.2176,-2.2176,-2.2183,0,0,-2.2177,-2.2177,0,0,0,0,0,0,0,0,-2.2165,-2.2166,-2.2171,-2.2171,-2.2171,-2.2174,-2.2174,-2.2178,-2.2172,-2.2172,-2.2172,-2.2172,-2.2175,-2.2175,-2.2177,-2.2183,-2.2183,-2.2177,-2.2177,-2.2177,-2.2178,0,0,0,0,0,0,0,-2.2165,-2.2166,-2.2174,-2.2171,-2.2171,-2.217,-2.217,-2.2175,-2.2175,-2.2172,-2.2171,-2.2172,-2.2175,-2.2176,-2.2177,-2.2183,-2.2177,-2.2177,-2.2178,-2.2178,-2.2196,-2.2196,0,0,0,0,0,0,-2.2165,-2.2166,-2.2174,-2.2174,-2.2168,-2.217,-2.2171,-2.2173,-2.2175,-2.2175,-2.2172,-2.2172,-2.2176,-2.2176,-2.2177,-2.2185,-2.2177,-2.2178,-2.2178,-2.2196,-2.2196,-2.2197,0,0,0,0,0,0,-2.2165,-2.2166,-2.2174,-2.217,-2.2171,-2.2171,-2.2173,-2.2173,-2.2174,-2.2175,-2.2175,-2.2174,-2.2176,-2.2176,-2.2182,-2.2185,-2.2178,-2.2178,-2.2196,-2.2196,-2.2196,-2.2203,0,0,0,0,0,0,-2.2164,-2.2166,-2.2168,-2.217,-2.2171,-2.2178,-2.2173,-2.2173,-2.2175,-2.2175,-2.2176,-2.2176,-2.2175,-2.2181,-2.2182,-2.2186,-2.2179,-2.2195,-2.2196,-2.2196,-2.2202,-2.2203,-2.2204,0,0,0,0,0,-2.2164,-2.217,-2.2168,-2.2169,-2.2174,-2.2179,-2.2179,-2.2178,-2.2175,-2.2178,-2.2179,-2.2176,-2.2185,-2.2182,-2.2183,-2.2187,-2.2195,-2.2196,-2.2196,-2.2202,-2.2203,-2.2204,0,0,0,0,0,0,-2.2168,-2.217,-2.2168,-2.2175,-2.2177,-2.2178,-2.2181,-2.218,-2.2182,-2.2182,-2.218,-2.2181,-2.2186,-2.2187,-2.2183,-2.2194,-2.2189,-2.219,-2.2193,-2.2195,-2.2196,-2.2195,-2.2179,0,0,0,0,0,-2.217,-2.2173,-2.2175,-2.218,-2.2181,-2.2181,-2.2183,-2.2182,-2.2184,-2.2185,-2.2185,-2.2187,-2.219,-2.2192,-2.2195,-2.2202,-2.2203,-2.2205,-2.2206,-2.2207,-2.2208,-2.2212,-2.2214,-2.2199,-2.2199,-2.2199,0,0,-2.2173,-2.2175,-2.2177,-2.2181,-2.2182,-2.2186,-2.2182,-2.2186,-2.2188,-2.2185,-2.219,-2.2191,-2.2193,-2.2199,-2.2202,-2.22,-2.2212,-2.2208,-2.2209,-2.2209,-2.2213,-2.2215,-2.2216,-2.2199,-2.2199,-2.2199,0,0,-2.2182,-2.2183,-2.2188,-2.2189,-2.2192,-2.2192,-2.2193,-2.2194,-2.2195,-2.22,-2.2198,-2.2201,-2.2207,-2.2208,-2.221,-2.2219,-2.2218,-2.222,-2.2226,-2.223,-2.2231,-2.2232,-2.2236,-2.2238,-2.2221,-2.2221,-2.2221,0,-2.2185,-2.2191,-2.219,-2.2195,-2.2197,-2.2194,-2.2199,-2.2201,-2.2204,-2.2205,-2.2203,-2.221,-2.2211,-2.2218,-2.2221,-2.2222,-2.2223,-2.222,-2.2231,-2.2232,-2.2233,-2.2237,-2.2239,-2.2221,-2.2221,-2.2221,-2.2221,0,-2.2196,-2.22,-2.2204,-2.2208,-2.221,-2.2215,-2.2215,-2.2217,-2.2216,-2.2216,-2.2222,-2.2223,-2.2227,-2.2228,-2.2227,-2.2235,-2.2234,-2.2231,-2.2227,-2.2235,-2.2239,-2.224,-2.2222,-2.2222,-2.2222,-2.2222,0,0,-2.2207,-2.221,-2.2212,-2.2214,-2.2216,-2.2219,-2.2224,-2.2228,-2.223,-2.2232,-2.2237,-2.2242,-2.2239,-2.2241,-2.224,-2.2244,-2.2252,-2.2241,-2.2241,-2.2244,-2.2262,-2.2264,-2.2266,-2.2251,-2.2251,-2.2251,-2.2262,0,-2.2216,-2.2225,-2.2224,-2.2232,-2.2236,-2.2234,-2.2238,-2.224,-2.2241,-2.2244,-2.2245,-2.2249,-2.2245,-2.2246,-2.225,-2.2251,-2.2256,-2.225,-2.2255,-2.2255,-2.2255,-2.2268,-2.227,-2.228,-2.2263,-2.2264,-2.2264,0,-2.2227,-2.2231,-2.2239,-2.2242,-2.2244,-2.2247,-2.2251,-2.2254,-2.2257,-2.2257,-2.2259,-2.2258,-2.2263,-2.2258,-2.2266,-2.2261,-2.2264,-2.2264,-2.2265,-2.2265,-2.226,-2.227,-2.2283,-2.2285,-2.2266,-2.2266,-2.2266,0,-2.2235,-2.2242,-2.2248,-2.2249,-2.2252,-2.2255,-2.2257,-2.2259,-2.2261,-2.2264,-2.2266,-2.227,-2.2272,-2.2275,-2.2274,-2.2271,-2.2282,-2.2277,-2.2282,-2.2283,-2.2285,-2.2285,-2.23,-2.2286,-2.2286,-2.2286,-2.2286,0,-2.2245,-2.2251,-2.2252,-2.2255,-2.2262,-2.2261,-2.2267,-2.2268,-2.227,-2.2275,-2.2273,-2.2277,-2.2276,-2.228,-2.228,-2.2286,-2.2287,-2.2287,-2.2287,-2.2288,-2.2288,-2.2289,-2.2289,-2.2286,-2.2286,-2.2286,-2.2286,0,-2.2255,-2.2256,-2.2263,-2.2265,-2.2266,-2.2271,-2.2273,-2.2276,-2.2277,-2.2282,-2.2283,-2.2284,-2.2289,-2.2289,-2.2294,-2.2294,-2.2302,-2.2301,-2.2301,-2.2301,-2.2307,-2.2307,-2.2324,-2.2326,-2.231,-2.231,-2.231,0,-2.2262,-2.2266,-2.227,-2.2272,-2.2274,-2.2279,-2.2281,-2.2281,-2.2284,-2.2287,-2.2291,-2.2295,-2.2299,-2.2306,-2.2307,-2.2311,-2.2311,-2.2317,-2.2311,-2.2312,-2.2312,-2.2312,-2.2312,-2.2318,-2.2318,-2.2318,-2.2318,0,-2.2274,-2.2274,-2.2278,-2.2283,-2.2286,-2.229,-2.2293,-2.2295,-2.2295,-2.2298,-2.2303,-2.2306,-2.2312,-2.2316,-2.232,-2.2322,-2.232,-2.232,-2.2321,-2.2322,-2.2323,-2.2323,-2.2305,-2.2319,-2.2319,-2.2319,-2.2319,-2.2319,-2.2283,-2.2287,-2.229,-2.2295,-2.2297,-2.2301,-2.2304,-2.2306,-2.231,-2.2315,-2.2314,-2.232,-2.2323,-2.2328,-2.233,-2.2334,-2.2332,-2.2334,-2.2335,-2.2335,-2.2336,-2.2321,-2.2335,-2.2335,-2.2335,-2.2335,-2.2335,0,-2.2296,-2.2298,-2.2302,-2.2307,-2.2311,-2.2309,-2.2312,-2.2316,-2.2321,-2.2324,-2.2328,-2.2333,-2.2338,-2.234,-2.2344,-2.2348,-2.2347,-2.2349,-2.2349,-2.2349,-2.2338,-2.2336,-2.2349,-2.2349,-2.2349,-2.2349,-2.2349,-2.2349,-2.2303,-2.231,-2.231,-2.2319,-2.2321,-2.2326,-2.2329,-2.2332,-2.2334,-2.2341,-2.2345,-2.2346,-2.2348,-2.2353,-2.2358,-2.2358,-2.236,-2.2362,-2.2362,-2.2351,-2.235,-2.2349,-2.2347,-2.2362,-2.2363,-2.2374,-2.2374,-2.2374]}]]